DELTA 1 DEB *, 15789

Orbit data source: Space-Track

DELTA 1 DEB *, 15789 is space debris in LEO originally from a launch on Tue, 06 Nov 1973 UTC launched from the Air Force Western Test Range (AFWTR). Debris objects in space refer to the collection of defunct objects orbiting the Earth. Examples of debris include non-operational satellites, rocket bodies, and fragments generated from explosions, collisions, or faulty payload assembly.

Loading next visibility...
Identifier
15789, 1973-086GT
Orbit
LEO
Country
Flag of USUS
Related business
Manufacturer
Unknown
Mission
Spacecraft
Bus & Motor
Unknown
Mass
Unknown
Launch date (UTC)
1973-11-06 (53 years ago)
Launch vehicle
Unknown
Launch site
Air Force Western Test Range (AFWTR)
Object type
Payload
Rocket body
Debris
Shape & HBR
Unknown shape, 0.1 m
Radar Cross Section
Medium (>0.1 m² and <1 m²)

Expand to show TLE details & history
Last TLE update: 17 hours ago

TLE from 17 hours ago
0 DELTA 1 DEB *
1 15789U 73086GT  26209.18652987 -.00009551  00000-0 -43556-1 0  9995
2 15789 103.7831 323.0098 0438042  66.3130  47.5196 12.50783232652154
Epoch: 2026-07-28T04:28Z
TLE epoch observation values (Epoch: 2026-07-28T04:28:36.180Z)
Latitude
59.42605°
Longitude
154.40103°
Altitude
1,247.63 km
Speed
7.339 km/s
True Right ascension
11h 09m 38s
True Declination
59° 17' 06"
Sunlit
Object was in daylight at epoch
Visualization orbit readout
Latitude
Unknown
Longitude
Unknown
Altitude
Unknown
Speed
Unknown
Apparent Right ascension
Unknown
Apparent Declination
Unknown
Sunlit
N/A
Visualization observer readout
Local Sidereal Time
10:26:37
Azimuth
Unknown
Elevation
Unknown
Doppler factor
Unknown
Orbital elements
Apogee altitude
1,802.183 km
Perigee altitude
1,115.594 km
Semi-major axis
7,837.026 km
Eccentricity
0.0438
Inclination
103.7831°
RAAN
323.0098°
Arg. of periapsis
66.313°
True anomaly
51.36062°
Mean anomaly
47.5196°
Eccentric anomaly
49.42596°
Mean motion
3.12836 °/min
Orbital period
115.08 mins
BSTAR
-0.043556
Loading maneuver chart data...
Computing Atmospheric mass density...
Loading historical data...
Loading historical data...
Loading historical data...
Loading historical data...
Loading historical data...
Loading historical data...
Loading historical data...

Documentation

Showing up to 5 results
|